Regional Weather Roundup
Issued by NWS

Home | Current Version | Previous Version | Text Only | Print | Product List | Glossary Off
Versions: 1 2 3 4 5 6 7 8 9 10 11 12 13 14 15 16 17 18 19 20 21 22 23 24 25 26 27 28 29 30 31 32 33 34 35 36 37 38 39 40 41 42 43 44 45 46 47 48 49 50

000
ASUS43 KMKX 192200
RWRWI

WISCONSIN REGIONAL WEATHER ROUNDUP
NATIONAL WEATHER SERVICE MILWAUKEE/SULLIVAN WI
500 PM CDT THU OCT 19 2017

NOTE: "FAIR" INDICATES FEW OR NO CLOUDS BELOW 12,000 FEET WITH NO
SIGNIFICANT WEATHER AND/OR OBSTRUCTIONS TO VISIBILITY.

WIZ001-002-006>008-014>016-023>028-192300-
NORTHWEST WISCONSIN

CITY           SKY/WX    TMP DP  RH WIND       PRES   REMARKS
SUPERIOR ARPT  CLOUDY    68  36  29 S7        29.91F
ASHLAND        SUNNY     68  33  27 S8        29.94F
HAYWARD        SUNNY     67  34  29 S12       29.98F
SIREN          SUNNY     71  32  23 S10G16    29.96S
CUMBERLAND     SUNNY     66  34  30 S9        29.98F
RICE LAKE      SUNNY     69  32  25 S10       30.00F
CHETEK         SUNNY     69  37  30 MISG      30.00F
LADYSMITH      SUNNY     67  34  29 S9        30.03S
EAU CLAIRE     NOT AVBL
MENOMONIE      SUNNY     70  35  28 S9        30.00F
NEW RICHMOND   SUNNY     71  32  24 S13       29.97F
OSCEOLA        SUNNY     72  33  23 S13G21    29.99F
$$

WIZ003>005-009-010-017-018-192300-
NORTH CENTRAL WISCONSIN

CITY           SKY/WX    TMP DP  RH WIND       PRES   REMARKS
MANITOWISH WTR CLOUDY    65  31  28 S8        30.01F
ARBOR VITAE    CLEAR     65  30  27 SW9       30.02S
WOODRUFF       CLEAR     65  30  27 SW9       30.02S
RHINELANDER    CLEAR     65  30  27 SW8       30.04F
EAGLE RIVER    CLEAR     64  26  23 W7        30.03S
LAND O LAKES   CLEAR     64  27  25 SW6       30.03F
PHILLIPS       SUNNY     65  33  30 S8        30.02S
TOMAHAWK       SUNNY     65  29  25 CALM      30.04F
MEDFORD        SUNNY     65  33  30 S9        30.05F
MERRILL        SUNNY     67  34  30 SW7       30.05F
$$

WIZ029-030-035-036-043>047-192300-
CENTRAL WISCONSIN

CITY           SKY/WX    TMP DP  RH WIND       PRES   REMARKS
WAUSAU         SUNNY     66  34  30 S8        30.04F
MOSINEE        MOSUNNY   66  32  28 SW8       30.07F
MARSHFIELD     SUNNY     67  32  27 S9        30.05S
STEVENS POINT  SUNNY     66  33  29 SW9       30.07F
WAUPACA        SUNNY     71  30  22 S6        30.08S
WAUTOMA        SUNNY     70  34  26 S8        30.08F
WISC RAPIDS    SUNNY     69  35  28 S7        30.07F
CAMP DOUGLAS   NOT AVBL
$$

WIZ011>013-019>022-031-037>040-048>050-192300-
NORTHEAST WISCONSIN

CITY           SKY/WX    TMP DP  RH WIND       PRES   REMARKS
ANTIGO         CLEAR     62  37  38 SW8       30.06F
SHAWANO        CLEAR     69  30  22 SW5       30.07R
OCONTO         CLEAR     67  31  26 W5        30.06S
STURGEON BAY   CLEAR     65  32  29 SW7       30.08S
GREEN BAY      CLEAR     66  37  34 SW6       30.08S
MANITOWOC      CLEAR     67  32  27 SW6       30.10F
APPLETON       PTCLDY    66  28  24 SW9       30.07F
CLINTONVILLE   CLEAR     70  28  21 SW7       30.07S
OSHKOSH        CLEAR     67  36  31 SW6       30.09S
$$

WIZ032>034-041-042-053>061-192300-
SOUTHWEST WISCONSIN

CITY           SKY/WX    TMP DP  RH WIND       PRES   REMARKS
LA CROSSE      SUNNY     70  36  28 S14       30.05F
SPARTA         SUNNY     69  34  27 S8        30.07S
VIROQUA        SUNNY     68  37  31 S9        30.09S
BOSCOBEL       SUNNY     72  33  24 VRB7      30.09F
PRAIRIE DU CHI SUNNY     71  30  22 SE6       30.08F
PLATTEVILLE    CLOUDY    69  38  32 S7        30.12F
$$

WIZ056-057-062-063-064-067-068-192300-
SOUTH CENTRAL WISCONSIN

CITY           SKY/WX    TMP DP  RH WIND       PRES   REMARKS
REEDSBURG      SUNNY     68  35  29 S7        30.09F
BARABOO/DELLS  SUNNY     67  31  25 S12       30.09F
LONE ROCK      NOT AVBL
MINERAL POINT  SUNNY     70  32  24 S6        30.12S
MADISON        PTSUNNY   67  34  29 S8        30.12S
MIDDLETON      SUNNY     68  31  25 S6        30.12S
WATERTOWN      SUNNY     68  35  29 S7        30.11F
MONROE         CLOUDY    70  32  24 S7        30.13S
JANESVILLE     PTSUNNY   70  30  23 S9        30.13S
$$

WIZ051-052-058>065-066-070>072-192300-
SOUTHEAST WISCONSIN

CITY           SKY/WX    TMP DP  RH WIND       PRES   REMARKS
MILWAUKEE      PTCLDY    63  31  30 S10       30.14F
WAUKESHA       SUNNY     64  30  27 S7        30.14F
MILWAUKEE/TIMM CLEAR     66  25  20 SW5       30.13F
RACINE         CLEAR     61  26  26 S9        30.16F
BURLINGTON     SUNNY     68  34  28 S6        30.14S
KENOSHA        CLOUDY    61  27  27 S10       30.15F
FOND DU LAC    CLEAR     69  29  22 SW7       30.10S
SHEBOYGAN      CLEAR     66  36  32 SW6       30.11S
WEST BEND      CLEAR     66  28  24 SW7       30.12S
JUNEAU         SUNNY     67  31  26 S5        30.12S
$$

LSZ147-162-192300-
LAKE SUPERIOR

STATION/POSITION TIME  TEMP    WIND        PRES    WAVE
                       AIR SEA DIR/SP/G            HT/PER
                 (UTC) (F)     (DEG/KT/KT) (MB)    (FT/S)
W MID LAKE BUOY  2050   54 52              1014.2F   3/ 5
DEVILS ISLAND    2100   61     160/  4/  5 1014.2F
PORT WING        1940           30/  4/  5 1014.6
SAXON HARBOR     2140   71     210/ 11/ 15 1013.5F
$$

LMZ867-665-643>646-192300-
LAKE MICHIGAN

STATION/POSITION TIME  TEMP    WIND        PRES    WAVE
                       AIR SEA DIR/SP/G            HT/PER
                 (UTC) (F)     (DEG/KT/KT) (MB)    (FT/S)
S GREEN BAY BUOY 2100   62 58  240/  6/  8 1017.9F
N MID LAKE BUOY  2050   59 58  220/ 16/ 17 1018.1R   3/ 5
NORTHPORT PIER   2140   67     210/  3/  6 1017.3F
KEWAUNEE LAKESHO 2130   67     250/  4/  7 1018.1R
SHEBOYGAN LAKESH 2100   58     170/ 19/ 20 1019.3R
PORT WASHINGTON  2140   59     190/  7/ 11 1021.0S
ATWATER BUOY     2009   57 53  160/ 14/ 16 1020.5F
MILWAUKEE LAKESH 2130   58     160/ 16/ 17   N/A
S MID LAKE BUOY  2050   60 61  220/  8/  8 1021.6F   1/ 4
KENOSHA   LAKESH 2100   58     170/ 12/ 13 1021.0
$$

TC  - TEMPERATURE IN CELSIUS
VSB - VISIBILITY IN STATUTE MILES
WCI - WIND CHILL INDEX
HX  - HEAT INDEX





USA.gov is the U.S. government's official web portal to all federal, state and local government web resources and services.